Voltar ao catálogo

VANGUARD R/B

AtivoUNKNOWN
NORAD 12·ROCKET BODY·🇺🇸 United States

Lançado Feb 17, 1959 de Cape Canaveral Space Force Station

Loading…

Próximas Passagens (próximas 24 horas)

TLE

AtualizadoSource: Space-Track

Época: Sep 14, 2026, 10:50 UTC

1 00012U 59001B   26257.45156621  .00000312  00000-0  16291-3 0  9998
2 00012  32.9045 270.5450 1644965 218.0136 129.2335 11.48646815541590

Acompanhe VANGUARD R/B em tempo real com AllMySat

Download on the App Store